Time,TemperatureF,DewpointF,PressureIn,WindDirection,WindDirectionDegrees,WindSpeedMPH,WindSpeedGustMPH,Humidity,HourlyPrecipIn,Conditions,Clouds,dailyrainin,SoftwareType,DateUTC
2013-07-31 00:02:00,63.1,63.1,29.12,West,281,0.0,0.0,100,0.00,,---,0.00,VWS V14.01,2013-07-31 05:02:00,
2013-07-31 00:07:00,63.1,63.1,29.12,West,281,0.0,0.0,100,0.00,,---,0.00,VWS V14.01,2013-07-31 05:07:00,
2013-07-31 00:12:00,63.1,63.1,29.12,West,281,0.0,0.0,100,0.00,,---,0.00,VWS V14.01,2013-07-31 05:12:00,
2013-07-31 00:17:00,63.1,63.1,29.12,West,281,0.0,0.0,100,0.00,,---,0.00,VWS V14.01,2013-07-31 05:17:00,
2013-07-31 00:22:00,63.1,63.1,29.12,West,281,0.0,0.0,100,0.00,,---,0.00,VWS V14.01,2013-07-31 05:22:00,
2013-07-31 00:27:00,63.1,63.1,29.12,West,281,0.0,0.0,100,0.00,,---,0.00,VWS V14.01,2013-07-31 05:27:00,
2013-07-31 00:32:00,63.0,63.0,29.12,West,281,0.0,0.0,100,0.00,,---,0.00,VWS V14.01,2013-07-31 05:32:00,
2013-07-31 00:37:00,63.0,63.0,29.12,West,281,0.0,0.0,100,0.00,,---,0.00,VWS V14.01,2013-07-31 05:37:00,
2013-07-31 00:42:00,63.0,63.0,29.12,West,281,0.0,0.0,100,0.00,,---,0.00,VWS V14.01,2013-07-31 05:42:00,
2013-07-31 00:47:00,62.8,62.8,29.09,West,281,0.0,0.0,100,0.00,,---,0.00,VWS V14.01,2013-07-31 05:47:00,
2013-07-31 00:52:00,62.8,62.8,29.09,West,281,0.0,0.0,100,0.00,,---,0.00,VWS V14.01,2013-07-31 05:52:00,
2013-07-31 00:57:00,62.6,62.6,29.09,West,281,0.0,0.0,100,0.00,,---,0.00,VWS V14.01,2013-07-31 05:57:00,
2013-07-31 01:02:00,62.6,62.6,29.09,West,281,0.0,0.0,100,0.00,,---,0.00,VWS V14.01,2013-07-31 06:02:00,
2013-07-31 01:07:00,62.6,62.6,29.09,West,281,0.0,0.0,100,0.00,,---,0.00,VWS V14.01,2013-07-31 06:07:00,
2013-07-31 01:12:00,62.6,62.6,29.09,West,281,0.0,0.0,100,0.00,,---,0.00,VWS V14.01,2013-07-31 06:12:00,
2013-07-31 01:17:00,62.6,62.6,29.09,West,281,0.0,0.0,100,0.00,,---,0.00,VWS V14.01,2013-07-31 06:17:00,
2013-07-31 01:22:00,62.6,62.6,29.09,West,281,0.0,0.0,100,0.00,,---,0.00,VWS V14.01,2013-07-31 06:22:00,
2013-07-31 01:27:00,62.6,62.6,29.09,West,281,0.0,0.0,100,0.00,,---,0.00,VWS V14.01,2013-07-31 06:27:00,
2013-07-31 01:32:00,62.6,62.6,29.09,West,281,0.0,0.0,100,0.00,,---,0.00,VWS V14.01,2013-07-31 06:32:00,
2013-07-31 01:37:00,62.6,62.6,29.09,West,281,0.0,0.0,100,0.00,,---,0.00,VWS V14.01,2013-07-31 06:37:00,
2013-07-31 01:42:00,62.6,62.6,29.09,West,281,0.0,0.0,100,0.00,,---,0.00,VWS V14.01,2013-07-31 06:42:00,
2013-07-31 01:47:00,62.6,62.6,29.12,West,281,0.0,0.0,100,0.00,,---,0.00,VWS V14.01,2013-07-31 06:47:00,
2013-07-31 01:52:00,62.6,62.6,29.12,West,281,0.0,0.0,100,0.00,,---,0.00,VWS V14.01,2013-07-31 06:52:00,
2013-07-31 01:57:00,62.6,62.6,29.12,West,281,0.0,0.0,100,0.00,,---,0.00,VWS V14.01,2013-07-31 06:57:00,
2013-07-31 02:02:00,62.8,62.8,29.09,West,281,0.0,0.0,100,0.00,,---,0.00,VWS V14.01,2013-07-31 07:02:00,
2013-07-31 02:07:00,62.8,62.8,29.09,West,281,0.0,0.0,100,0.00,,---,0.00,VWS V14.01,2013-07-31 07:07:00,
2013-07-31 02:12:00,62.6,62.6,29.09,West,281,0.0,0.0,100,0.00,,---,0.00,VWS V14.01,2013-07-31 07:12:00,
2013-07-31 02:17:00,62.6,62.6,29.09,West,281,0.0,0.0,100,0.00,,---,0.00,VWS V14.01,2013-07-31 07:17:00,
2013-07-31 02:22:00,62.6,62.6,29.09,West,281,0.0,0.0,100,0.00,,---,0.00,VWS V14.01,2013-07-31 07:22:00,
2013-07-31 02:27:00,62.4,62.4,29.09,West,281,0.0,0.0,100,0.00,,---,0.00,VWS V14.01,2013-07-31 07:27:00,
2013-07-31 02:32:00,62.2,62.2,29.09,West,281,0.0,0.0,100,0.00,,---,0.00,VWS V14.01,2013-07-31 07:32:00,
2013-07-31 02:37:00,62.1,62.1,29.09,West,281,0.0,0.0,100,0.00,,---,0.00,VWS V14.01,2013-07-31 07:37:00,
2013-07-31 02:42:00,61.9,61.9,29.09,West,281,0.0,0.0,100,0.00,,---,0.00,VWS V14.01,2013-07-31 07:42:00,
2013-07-31 02:47:00,61.9,61.9,29.09,West,281,0.0,0.0,100,0.00,,---,0.00,VWS V14.01,2013-07-31 07:47:00,
2013-07-31 02:52:00,61.9,61.9,29.09,West,281,0.0,0.0,100,0.00,,---,0.00,VWS V14.01,2013-07-31 07:52:00,
2013-07-31 02:57:00,61.7,61.7,29.09,West,281,0.0,0.0,100,0.00,,---,0.00,VWS V14.01,2013-07-31 07:57:00,
2013-07-31 03:02:00,61.7,61.7,29.09,West,281,0.0,0.0,100,0.00,,---,0.00,VWS V14.01,2013-07-31 08:02:00,
2013-07-31 03:07:00,61.5,61.5,29.09,West,281,0.0,0.0,100,0.00,,---,0.00,VWS V14.01,2013-07-31 08:07:00,
2013-07-31 03:12:00,61.5,61.5,29.09,West,281,0.0,0.0,100,0.00,,---,0.00,VWS V14.01,2013-07-31 08:12:00,
2013-07-31 03:17:00,61.7,61.7,29.09,West,281,0.0,0.0,100,0.00,,---,0.00,VWS V14.01,2013-07-31 08:17:00,
2013-07-31 03:22:00,61.7,61.7,29.09,West,281,0.0,0.0,100,0.00,,---,0.00,VWS V14.01,2013-07-31 08:22:00,
2013-07-31 03:27:00,61.7,61.7,29.09,West,281,0.0,0.0,100,0.00,,---,0.00,VWS V14.01,2013-07-31 08:27:00,
2013-07-31 03:32:00,61.7,61.7,29.09,West,281,0.0,0.0,100,0.00,,---,0.00,VWS V14.01,2013-07-31 08:32:00,
2013-07-31 03:37:00,61.7,61.7,29.09,West,281,0.0,0.0,100,0.00,,---,0.00,VWS V14.01,2013-07-31 08:37:00,
2013-07-31 03:42:00,61.7,61.7,29.09,West,281,0.0,0.0,100,0.00,,---,0.00,VWS V14.01,2013-07-31 08:42:00,
2013-07-31 03:47:00,61.5,61.5,29.09,West,281,0.0,0.0,100,0.00,,---,0.00,VWS V14.01,2013-07-31 08:47:00,
2013-07-31 03:52:00,61.5,61.5,29.09,West,281,0.0,0.0,100,0.00,,---,0.00,VWS V14.01,2013-07-31 08:52:00,
2013-07-31 03:57:00,61.5,61.5,29.09,West,281,0.0,0.0,100,0.00,,---,0.00,VWS V14.01,2013-07-31 08:57:00,
2013-07-31 04:02:00,61.5,61.5,29.09,West,281,0.0,0.0,100,0.00,,---,0.00,VWS V14.01,2013-07-31 09:02:00,
2013-07-31 04:07:00,61.5,61.5,29.09,West,281,0.0,0.0,100,0.00,,---,0.00,VWS V14.01,2013-07-31 09:07:00,
2013-07-31 04:12:00,61.5,61.5,29.09,West,281,0.0,0.0,100,0.00,,---,0.00,VWS V14.01,2013-07-31 09:12:00,
2013-07-31 04:17:00,61.3,61.3,29.09,West,281,0.0,0.0,100,0.00,,---,0.00,VWS V14.01,2013-07-31 09:17:00,
2013-07-31 04:22:00,61.2,61.2,29.09,West,281,0.0,0.0,100,0.00,,---,0.00,VWS V14.01,2013-07-31 09:22:00,
2013-07-31 04:27:00,61.0,61.0,29.09,West,281,0.0,0.0,100,0.00,,---,0.00,VWS V14.01,2013-07-31 09:27:00,
2013-07-31 04:32:00,61.0,61.0,29.09,West,281,0.0,0.0,100,0.00,,---,0.00,VWS V14.01,2013-07-31 09:32:00,
2013-07-31 04:37:00,61.0,61.0,29.09,West,281,0.0,0.0,100,0.00,,---,0.00,VWS V14.01,2013-07-31 09:37:00,
2013-07-31 04:42:00,61.2,61.2,29.09,West,281,0.0,0.0,100,0.00,,---,0.00,VWS V14.01,2013-07-31 09:42:00,
2013-07-31 04:47:00,61.2,61.2,29.09,West,281,0.0,0.0,100,0.00,,---,0.00,VWS V14.01,2013-07-31 09:47:00,
2013-07-31 04:52:00,61.2,61.2,29.09,West,281,0.0,0.0,100,0.00,,---,0.00,VWS V14.01,2013-07-31 09:52:00,
2013-07-31 04:57:00,61.2,61.2,29.09,West,281,0.0,0.0,100,0.00,,---,0.00,VWS V14.01,2013-07-31 09:57:00,
2013-07-31 05:02:00,61.0,61.0,29.09,West,281,0.0,0.0,100,0.00,,---,0.00,VWS V14.01,2013-07-31 10:02:00,
2013-07-31 05:07:00,60.6,60.6,29.09,West,281,0.0,0.0,100,0.00,,---,0.00,VWS V14.01,2013-07-31 10:07:00,
2013-07-31 05:12:00,60.4,60.4,29.09,West,281,0.0,0.0,100,0.00,,---,0.00,VWS V14.01,2013-07-31 10:12:00,
2013-07-31 05:17:00,60.4,60.4,29.09,West,281,0.0,0.0,100,0.00,,---,0.00,VWS V14.01,2013-07-31 10:17:00,
2013-07-31 05:22:00,60.3,60.3,29.09,West,281,0.0,0.0,100,0.00,,---,0.00,VWS V14.01,2013-07-31 10:22:00,
2013-07-31 05:27:00,60.4,60.4,29.09,West,281,0.0,0.0,100,0.00,,---,0.00,VWS V14.01,2013-07-31 10:27:00,
2013-07-31 05:32:00,60.4,60.4,29.09,West,281,0.0,0.0,100,0.00,,---,0.00,VWS V14.01,2013-07-31 10:32:00,
2013-07-31 05:37:00,60.6,60.6,29.09,West,281,0.0,0.0,100,0.00,,---,0.00,VWS V14.01,2013-07-31 10:37:00,
2013-07-31 05:42:00,60.4,60.4,29.09,West,281,0.0,0.0,100,0.00,,---,0.00,VWS V14.01,2013-07-31 10:42:00,
2013-07-31 05:47:00,60.1,60.1,29.09,West,281,0.0,0.0,100,0.00,,---,0.00,VWS V14.01,2013-07-31 10:47:00,
2013-07-31 05:52:00,59.9,59.9,29.09,West,281,0.0,0.0,100,0.00,,---,0.00,VWS V14.01,2013-07-31 10:52:00,
2013-07-31 05:57:00,60.1,60.1,29.09,West,281,0.0,0.0,100,0.00,,---,0.00,VWS V14.01,2013-07-31 10:57:00,
2013-07-31 06:02:00,60.3,60.3,29.09,West,281,0.0,0.0,100,0.00,,---,0.00,VWS V14.01,2013-07-31 11:02:00,
2013-07-31 06:07:00,60.4,60.4,29.09,West,281,0.0,0.0,100,0.00,,---,0.00,VWS V14.01,2013-07-31 11:07:00,
2013-07-31 06:12:00,60.4,60.4,29.09,West,281,0.0,0.0,100,0.00,,---,0.00,VWS V14.01,2013-07-31 11:12:00,
2013-07-31 06:17:00,60.4,60.4,29.09,West,281,0.0,0.0,100,0.00,,---,0.00,VWS V14.01,2013-07-31 11:17:00,
2013-07-31 06:22:00,60.6,60.6,29.09,West,281,0.0,0.0,100,0.00,,---,0.00,VWS V14.01,2013-07-31 11:22:00,
2013-07-31 06:27:00,60.8,60.8,29.09,West,281,0.0,0.0,100,0.00,,---,0.00,VWS V14.01,2013-07-31 11:27:00,
2013-07-31 06:32:00,61.0,61.0,29.09,West,281,0.0,0.0,100,0.00,,---,0.00,VWS V14.01,2013-07-31 11:32:00,
2013-07-31 06:37:00,61.3,61.3,29.09,West,281,0.0,0.0,100,0.00,,---,0.00,VWS V14.01,2013-07-31 11:37:00,
2013-07-31 06:42:00,61.5,61.5,29.09,West,261,0.0,0.0,100,0.00,,---,0.00,VWS V14.01,2013-07-31 11:42:00,
2013-07-31 06:47:00,61.7,61.7,29.09,West,261,0.0,0.0,100,0.00,,---,0.00,VWS V14.01,2013-07-31 11:47:00,
2013-07-31 06:52:00,61.9,61.9,29.09,West,261,0.0,0.0,100,0.00,,---,0.00,VWS V14.01,2013-07-31 11:52:00,
2013-07-31 06:57:00,62.1,62.1,29.09,West,261,0.0,0.0,100,0.00,,---,0.00,VWS V14.01,2013-07-31 11:57:00,
2013-07-31 07:02:00,62.2,62.2,29.09,West,261,0.0,0.0,100,0.00,,---,0.00,VWS V14.01,2013-07-31 12:02:00,
2013-07-31 07:07:00,62.4,62.4,29.09,West,261,0.0,0.0,100,0.00,,---,0.00,VWS V14.01,2013-07-31 12:07:00,
2013-07-31 07:12:00,62.6,62.6,29.09,West,261,0.0,0.0,100,0.00,,---,0.00,VWS V14.01,2013-07-31 12:12:00,
2013-07-31 07:17:00,63.0,63.0,29.09,West,261,0.0,0.0,100,0.00,,---,0.00,VWS V14.01,2013-07-31 12:17:00,
2013-07-31 07:22:00,63.3,63.3,29.09,NW,321,0.0,0.0,100,0.00,,---,0.00,VWS V14.01,2013-07-31 12:22:00,
2013-07-31 07:27:00,63.5,63.5,29.09,NW,312,0.0,0.0,100,0.00,,---,0.00,VWS V14.01,2013-07-31 12:27:00,
2013-07-31 07:32:00,63.5,63.5,29.09,NW,312,0.0,0.0,100,0.00,,---,0.00,VWS V14.01,2013-07-31 12:32:00,
2013-07-31 07:37:00,63.9,63.9,29.09,NW,312,0.0,0.0,100,0.00,,---,0.00,VWS V14.01,2013-07-31 12:37:00,
2013-07-31 07:42:00,64.2,64.2,29.09,SW,236,0.0,0.0,100,0.00,,---,0.00,VWS V14.01,2013-07-31 12:42:00,
2013-07-31 07:47:00,64.4,64.4,29.09,WSW,249,0.0,0.0,100,0.00,,---,0.00,VWS V14.01,2013-07-31 12:47:00,
2013-07-31 07:52:00,64.4,64.4,29.09,West,270,4.0,4.5,100,0.00,,---,0.00,VWS V14.01,2013-07-31 12:52:00,
2013-07-31 07:57:00,64.4,64.4,29.09,West,268,0.0,3.1,100,0.00,,---,0.00,VWS V14.01,2013-07-31 12:57:00,
2013-07-31 08:02:00,64.6,64.6,29.09,West,271,0.0,0.0,100,0.00,,---,0.00,VWS V14.01,2013-07-31 13:02:00,
2013-07-31 08:07:00,65.1,65.1,29.09,WNW,293,2.7,2.7,100,0.00,,---,0.00,VWS V14.01,2013-07-31 13:07:00,
2013-07-31 08:12:00,65.5,65.5,29.09,West,274,5.4,5.4,100,0.00,,---,0.00,VWS V14.01,2013-07-31 13:12:00,
2013-07-31 08:17:00,65.8,65.8,29.09,NW,317,3.1,4.0,100,0.00,,---,0.00,VWS V14.01,2013-07-31 13:17:00,
2013-07-31 08:22:00,66.2,66.2,29.09,WSW,256,3.1,3.1,100,0.00,,---,0.00,VWS V14.01,2013-07-31 13:22:00,
2013-07-31 08:27:00,66.6,66.6,29.09,WNW,299,0.0,0.0,100,0.00,,---,0.00,VWS V14.01,2013-07-31 13:27:00,
2013-07-31 08:32:00,66.6,66.6,29.06,WSW,257,4.9,4.9,100,0.00,,---,0.00,VWS V14.01,2013-07-31 13:32:00,
2013-07-31 08:37:00,66.4,66.4,29.06,WSW,255,2.7,3.1,100,0.00,,---,0.00,VWS V14.01,2013-07-31 13:37:00,
2013-07-31 08:42:00,66.9,66.9,29.06,NW,316,4.0,4.0,100,0.00,,---,0.00,VWS V14.01,2013-07-31 13:42:00,
2013-07-31 08:47:00,67.3,67.3,29.09,West,260,4.9,4.9,100,0.00,,---,0.00,VWS V14.01,2013-07-31 13:47:00,
2013-07-31 08:52:00,67.5,67.5,29.09,SSW,212,0.0,0.0,100,0.00,,---,0.00,VWS V14.01,2013-07-31 13:52:00,
2013-07-31 08:57:00,67.8,67.8,29.09,West,266,3.6,3.6,100,0.00,,---,0.00,VWS V14.01,2013-07-31 13:57:00,
2013-07-31 09:02:00,68.2,68.2,29.06,WSW,251,2.7,2.7,100,0.00,,---,0.00,VWS V14.01,2013-07-31 14:02:00,
2013-07-31 09:07:00,68.4,68.4,29.06,WNW,302,3.1,3.1,100,0.00,,---,0.00,VWS V14.01,2013-07-31 14:07:00,
2013-07-31 09:12:00,68.7,68.7,29.06,NW,307,5.8,7.6,100,0.00,,---,0.00,VWS V14.01,2013-07-31 14:12:00,
2013-07-31 09:17:00,68.9,68.9,29.06,West,275,3.1,3.1,100,0.00,,---,0.00,VWS V14.01,2013-07-31 14:17:00,
2013-07-31 09:22:00,69.4,69.4,29.06,West,267,6.3,6.3,100,0.00,,---,0.00,VWS V14.01,2013-07-31 14:22:00,
2013-07-31 09:27:00,69.8,69.8,29.06,WNW,285,2.2,3.1,100,0.00,,---,0.00,VWS V14.01,2013-07-31 14:27:00,
2013-07-31 09:32:00,69.6,69.6,29.06,SW,235,4.0,4.0,100,0.00,,---,0.00,VWS V14.01,2013-07-31 14:32:00,
2013-07-31 09:37:00,70.2,70.2,29.06,West,280,6.3,6.3,100,0.00,,---,0.00,VWS V14.01,2013-07-31 14:37:00,
2013-07-31 09:42:00,70.5,70.5,29.06,WSW,250,6.3,6.3,100,0.00,,---,0.00,VWS V14.01,2013-07-31 14:42:00,
2013-07-31 09:47:00,70.5,70.5,29.06,SW,222,5.8,5.8,100,0.00,,---,0.00,VWS V14.01,2013-07-31 14:47:00,
2013-07-31 09:52:00,70.7,70.7,29.06,WNW,287,3.1,5.8,100,0.00,,---,0.00,VWS V14.01,2013-07-31 14:52:00,
2013-07-31 09:57:00,70.9,70.9,29.06,West,276,3.1,3.1,100,0.00,,---,0.00,VWS V14.01,2013-07-31 14:57:00,
2013-07-31 10:02:00,70.9,70.9,29.06,NNW,348,3.6,3.6,100,0.00,,---,0.00,VWS V14.01,2013-07-31 15:02:00,
2013-07-31 10:07:00,71.1,71.1,29.06,NNW,342,5.4,5.4,100,0.00,,---,0.00,VWS V14.01,2013-07-31 15:07:00,
2013-07-31 10:12:00,71.2,71.2,29.06,NNE,20,5.4,5.4,100,0.00,,---,0.00,VWS V14.01,2013-07-31 15:12:00,
2013-07-31 10:17:00,71.4,71.4,29.06,NW,325,5.4,5.4,100,0.00,,---,0.00,VWS V14.01,2013-07-31 15:17:00,
2013-07-31 10:22:00,72.1,72.2,29.06,North,4,4.9,6.3,100,0.00,,---,0.00,VWS V14.01,2013-07-31 15:22:00,
2013-07-31 10:27:00,72.1,72.2,29.06,NW,306,5.4,5.8,100,0.00,,---,0.00,VWS V14.01,2013-07-31 15:27:00,
2013-07-31 10:32:00,72.1,72.2,29.06,West,267,2.7,5.4,100,0.00,,---,0.00,VWS V14.01,2013-07-31 15:32:00,
2013-07-31 10:37:00,72.3,72.3,29.06,WNW,301,5.8,5.8,100,0.00,,---,0.00,VWS V14.01,2013-07-31 15:37:00,
2013-07-31 10:42:00,72.9,72.9,29.06,NE,38,3.6,3.6,100,0.00,,---,0.00,VWS V14.01,2013-07-31 15:42:00,
2013-07-31 10:47:00,72.9,72.9,29.06,NNW,344,3.6,3.6,100,0.00,,---,0.00,VWS V14.01,2013-07-31 15:47:00,
2013-07-31 10:52:00,73.0,73.1,29.06,West,267,5.8,5.8,100,0.00,,---,0.00,VWS V14.01,2013-07-31 15:52:00,
2013-07-31 10:57:00,73.6,73.6,29.06,NNW,329,5.4,5.4,100,0.00,,---,0.00,VWS V14.01,2013-07-31 15:57:00,
2013-07-31 11:02:00,74.1,74.1,29.06,West,279,4.0,4.0,100,0.00,,---,0.00,VWS V14.01,2013-07-31 16:02:00,
2013-07-31 11:07:00,74.3,74.3,29.06,WNW,291,3.1,4.0,100,0.00,,---,0.00,VWS V14.01,2013-07-31 16:07:00,
2013-07-31 11:12:00,74.3,74.3,29.06,NNW,329,3.6,5.4,100,0.00,,---,0.00,VWS V14.01,2013-07-31 16:12:00,
2013-07-31 11:17:00,74.1,74.1,29.03,NW,312,4.0,4.0,100,0.00,,---,0.00,VWS V14.01,2013-07-31 16:17:00,
2013-07-31 11:22:00,74.5,74.5,29.03,West,278,5.4,5.4,100,0.00,,---,0.00,VWS V14.01,2013-07-31 16:22:00,
2013-07-31 11:27:00,75.4,75.1,29.03,West,259,3.6,5.8,99,0.00,,---,0.00,VWS V14.01,2013-07-31 16:27:00,
2013-07-31 11:32:00,75.6,74.3,29.03,WNW,288,5.8,5.8,96,0.00,,---,0.00,VWS V14.01,2013-07-31 16:32:00,
2013-07-31 11:37:00,75.4,74.2,29.03,NW,312,2.7,3.1,96,0.00,,---,0.00,VWS V14.01,2013-07-31 16:37:00,
2013-07-31 11:42:00,75.6,73.4,29.03,West,270,5.8,5.8,93,0.00,,---,0.00,VWS V14.01,2013-07-31 16:42:00,
2013-07-31 11:47:00,76.5,72.3,29.03,NW,310,5.4,5.4,87,0.00,,---,0.00,VWS V14.01,2013-07-31 16:47:00,
2013-07-31 11:52:00,76.6,72.5,29.03,West,273,4.9,5.8,87,0.00,,---,0.00,VWS V14.01,2013-07-31 16:52:00,
2013-07-31 11:57:00,77.7,73.6,29.03,NNW,335,8.3,8.3,87,0.00,,---,0.00,VWS V14.01,2013-07-31 16:57:00,
2013-07-31 12:02:00,78.3,70.8,29.03,NW,304,8.1,8.1,78,0.00,,---,0.00,VWS V14.01,2013-07-31 17:02:00,
2013-07-31 12:07:00,78.3,64.6,29.03,WNW,290,4.5,6.3,63,0.00,,---,0.00,VWS V14.01,2013-07-31 17:07:00,
2013-07-31 12:12:00,78.3,66.0,29.03,SW,224,5.4,5.4,66,0.00,,---,0.00,VWS V14.01,2013-07-31 17:12:00,
2013-07-31 12:17:00,78.4,67.4,29.03,WNW,303,3.6,3.6,69,0.00,,---,0.00,VWS V14.01,2013-07-31 17:17:00,
2013-07-31 12:22:00,78.4,66.2,29.03,NW,324,0.0,2.7,66,0.00,,---,0.00,VWS V14.01,2013-07-31 17:22:00,
2013-07-31 12:27:00,78.4,64.8,29.03,WNW,291,6.3,6.3,63,0.00,,---,0.00,VWS V14.01,2013-07-31 17:27:00,
2013-07-31 12:32:00,77.7,62.7,29.03,NNW,332,5.4,5.4,60,0.00,,---,0.00,VWS V14.01,2013-07-31 17:32:00,
2013-07-31 12:37:00,78.1,63.1,29.03,WSW,247,3.6,5.4,60,0.00,,---,0.00,VWS V14.01,2013-07-31 17:37:00,
2013-07-31 12:42:00,78.8,63.8,29.03,WSW,252,3.6,6.3,60,0.00,,---,0.00,VWS V14.01,2013-07-31 17:42:00,
2013-07-31 12:47:00,79.7,64.6,29.03,North,353,3.6,4.9,60,0.00,,---,0.00,VWS V14.01,2013-07-31 17:47:00,
2013-07-31 12:52:00,80.1,56.8,29.03,West,274,5.4,8.1,45,0.00,,---,0.00,VWS V14.01,2013-07-31 17:52:00,
2013-07-31 12:57:00,80.2,60.5,29.03,WNW,295,8.1,10.5,51,0.00,,---,0.00,VWS V14.01,2013-07-31 17:57:00,
2013-07-31 13:02:00,80.4,57.2,29.03,WNW,302,2.2,2.2,45,0.00,,---,0.00,VWS V14.01,2013-07-31 18:02:00,
2013-07-31 13:07:00,80.2,57.0,29.03,SW,230,5.4,8.1,45,0.00,,---,0.00,VWS V14.01,2013-07-31 18:07:00,
2013-07-31 13:12:00,80.2,60.5,29.03,West,277,5.4,5.4,51,0.00,,---,0.00,VWS V14.01,2013-07-31 18:12:00,
2013-07-31 13:17:00,80.2,57.0,29.00,NW,321,5.4,6.3,45,0.00,,---,0.00,VWS V14.01,2013-07-31 18:17:00,
2013-07-31 13:22:00,80.4,57.2,29.00,WNW,287,10.5,10.5,45,0.00,,---,0.00,VWS V14.01,2013-07-31 18:22:00,
2013-07-31 13:27:00,80.8,55.6,29.00,NNW,346,8.1,8.1,42,0.00,,---,0.00,VWS V14.01,2013-07-31 18:27:00,
2013-07-31 13:32:00,80.8,55.6,29.00,NW,323,8.3,8.3,42,0.00,,---,0.00,VWS V14.01,2013-07-31 18:32:00,
2013-07-31 13:37:00,80.8,55.6,29.00,WNW,287,7.6,7.6,42,0.00,,---,0.00,VWS V14.01,2013-07-31 18:37:00,
2013-07-31 13:42:00,80.1,50.7,29.00,WNW,301,5.8,6.3,36,0.00,,---,0.00,VWS V14.01,2013-07-31 18:42:00,
2013-07-31 13:47:00,79.3,56.2,29.00,WSW,241,3.1,3.6,45,0.00,,---,0.00,VWS V14.01,2013-07-31 18:47:00,
2013-07-31 13:52:00,78.8,55.7,29.00,North,0,7.2,7.2,45,0.00,,---,0.00,VWS V14.01,2013-07-31 18:52:00,
2013-07-31 13:57:00,78.6,63.6,29.00,WNW,284,2.7,6.3,60,0.00,,---,0.00,VWS V14.01,2013-07-31 18:57:00,
2013-07-31 14:02:00,77.9,59.9,29.00,West,269,4.9,5.8,54,0.00,,---,0.00,VWS V14.01,2013-07-31 19:02:00,
2013-07-31 14:07:00,77.9,59.9,29.00,SW,223,6.3,6.3,54,0.00,,---,0.00,VWS V14.01,2013-07-31 19:07:00,
2013-07-31 14:12:00,77.5,59.6,29.00,WSW,239,3.1,3.1,54,0.00,,---,0.00,VWS V14.01,2013-07-31 19:12:00,
2013-07-31 14:17:00,77.0,62.1,29.00,West,276,6.3,6.3,60,0.00,,---,0.00,VWS V14.01,2013-07-31 19:17:00,
2013-07-31 14:22:00,76.5,61.6,29.00,West,274,5.8,5.8,60,0.00,,---,0.00,VWS V14.01,2013-07-31 19:22:00,
2013-07-31 14:27:00,75.9,63.8,29.00,NW,326,6.3,6.3,66,0.00,,---,0.00,VWS V14.01,2013-07-31 19:27:00,
2013-07-31 14:32:00,75.4,61.9,29.00,WSW,254,5.4,5.4,63,0.00,,---,0.00,VWS V14.01,2013-07-31 19:32:00,
2013-07-31 14:37:00,74.8,62.7,29.00,West,280,3.6,5.8,66,0.00,,---,0.00,VWS V14.01,2013-07-31 19:37:00,
2013-07-31 14:42:00,74.3,63.5,29.00,WNW,302,2.7,3.6,69,0.00,,---,0.00,VWS V14.01,2013-07-31 19:42:00,
2013-07-31 14:47:00,73.9,64.3,29.03,WNW,298,3.1,4.9,72,0.00,,---,0.00,VWS V14.01,2013-07-31 19:47:00,
2013-07-31 14:52:00,73.6,65.2,29.03,West,280,3.6,3.6,75,0.00,,---,0.00,VWS V14.01,2013-07-31 19:52:00,
2013-07-31 14:57:00,73.2,66.0,29.03,NNW,341,3.1,3.6,78,0.00,,---,0.00,VWS V14.01,2013-07-31 19:57:00,
2013-07-31 15:02:00,72.3,60.3,29.03,ENE,59,10.5,13.2,66,0.00,,---,0.00,VWS V14.01,2013-07-31 20:02:00,
2013-07-31 15:07:00,70.7,60.0,29.03,NNE,21,4.9,6.3,69,0.00,,---,0.00,VWS V14.01,2013-07-31 20:07:00,
2013-07-31 15:12:00,69.6,60.2,29.03,NW,311,0.0,4.9,72,0.00,,---,0.00,VWS V14.01,2013-07-31 20:12:00,
2013-07-31 15:17:00,68.5,61.4,29.03,North,353,3.6,5.4,78,0.00,,---,0.00,VWS V14.01,2013-07-31 20:17:00,
2013-07-31 15:22:00,67.8,67.8,29.03,NNW,346,8.1,8.1,100,0.00,,---,0.00,VWS V14.01,2013-07-31 20:22:00,
2013-07-31 15:27:00,67.1,67.1,29.03,NNW,327,5.8,8.7,100,0.04,,---,0.04,VWS V14.01,2013-07-31 20:27:00,
2013-07-31 15:32:00,65.5,65.5,29.06,West,278,9.6,9.6,100,0.12,,---,0.12,VWS V14.01,2013-07-31 20:32:00,
2013-07-31 15:37:00,64.2,64.2,29.06,NW,314,6.3,8.3,100,0.20,,---,0.20,VWS V14.01,2013-07-31 20:37:00,
2013-07-31 15:42:00,63.0,63.0,29.06,SSW,194,2.7,3.6,100,0.24,,---,0.24,VWS V14.01,2013-07-31 20:42:00,
2013-07-31 15:47:00,62.2,62.2,29.00,SW,231,4.0,4.9,100,0.24,,---,0.24,VWS V14.01,2013-07-31 20:47:00,
2013-07-31 15:52:00,62.4,62.4,29.00,WSW,248,4.0,5.4,100,0.24,,---,0.24,VWS V14.01,2013-07-31 20:52:00,
2013-07-31 15:57:00,62.6,62.6,29.00,West,265,3.1,3.1,100,0.24,,---,0.24,VWS V14.01,2013-07-31 20:57:00,
2013-07-31 16:02:00,63.0,63.0,29.00,SSE,161,0.0,0.0,100,0.24,,---,0.24,VWS V14.01,2013-07-31 21:02:00,
2013-07-31 16:07:00,63.1,63.1,29.00,WNW,294,0.0,2.2,100,0.24,,---,0.24,VWS V14.01,2013-07-31 21:07:00,
2013-07-31 16:12:00,63.5,63.5,29.00,WSW,254,0.0,2.2,100,0.24,,---,0.24,VWS V14.01,2013-07-31 21:12:00,
2013-07-31 16:17:00,63.7,63.7,29.00,WSW,248,0.0,0.0,100,0.24,,---,0.24,VWS V14.01,2013-07-31 21:17:00,
2013-07-31 16:22:00,63.5,63.5,29.00,WSW,244,0.0,0.0,100,0.24,,---,0.24,VWS V14.01,2013-07-31 21:22:00,
2013-07-31 16:27:00,63.7,63.7,29.00,WNW,300,3.1,3.1,100,0.20,,---,0.24,VWS V14.01,2013-07-31 21:27:00,
2013-07-31 16:32:00,64.2,64.2,29.03,West,277,3.6,4.5,100,0.12,,---,0.24,VWS V14.01,2013-07-31 21:32:00,
2013-07-31 16:37:00,64.8,64.8,29.03,WSW,258,3.1,4.0,100,0.08,,---,0.24,VWS V14.01,2013-07-31 21:37:00,
2013-07-31 16:42:00,65.3,65.3,29.03,West,265,3.6,4.0,100,0.00,,---,0.24,VWS V14.01,2013-07-31 21:42:00,
2013-07-31 16:47:00,65.8,65.8,29.00,WSW,258,3.1,3.6,100,0.00,,---,0.24,VWS V14.01,2013-07-31 21:47:00,
2013-07-31 16:52:00,66.2,66.2,29.00,WSW,254,3.1,3.6,100,0.00,,---,0.24,VWS V14.01,2013-07-31 21:52:00,
2013-07-31 16:57:00,66.7,66.7,29.00,NW,306,5.8,5.8,100,0.00,,---,0.24,VWS V14.01,2013-07-31 21:57:00,
2013-07-31 17:02:00,67.3,67.3,29.00,WNW,298,4.9,7.2,100,0.00,,---,0.24,VWS V14.01,2013-07-31 22:02:00,
2013-07-31 17:07:00,67.3,67.3,29.00,WNW,288,5.4,6.3,100,0.00,,---,0.24,VWS V14.01,2013-07-31 22:07:00,
2013-07-31 17:12:00,67.5,67.5,29.00,WSW,248,3.1,4.0,100,0.00,,---,0.24,VWS V14.01,2013-07-31 22:12:00,
2013-07-31 17:17:00,67.6,67.6,29.00,West,270,5.4,5.8,100,0.00,,---,0.24,VWS V14.01,2013-07-31 22:17:00,
2013-07-31 17:22:00,67.8,67.8,29.00,West,259,3.1,4.9,100,0.00,,---,0.24,VWS V14.01,2013-07-31 22:22:00,
2013-07-31 17:27:00,67.8,67.8,29.00,NW,315,6.3,6.3,100,0.00,,---,0.24,VWS V14.01,2013-07-31 22:27:00,
2013-07-31 17:32:00,68.0,68.0,29.00,West,274,4.9,8.1,100,0.00,,---,0.24,VWS V14.01,2013-07-31 22:32:00,
2013-07-31 17:37:00,68.2,68.2,29.00,WNW,294,8.1,8.1,100,0.00,,---,0.24,VWS V14.01,2013-07-31 22:37:00,
2013-07-31 17:42:00,68.4,68.4,29.00,NW,311,5.8,5.8,100,0.00,,---,0.24,VWS V14.01,2013-07-31 22:42:00,
2013-07-31 17:47:00,68.5,68.5,29.00,WNW,292,4.9,7.6,100,0.00,,---,0.24,VWS V14.01,2013-07-31 22:47:00,
2013-07-31 17:52:00,68.7,68.7,29.00,West,279,3.1,3.6,100,0.00,,---,0.24,VWS V14.01,2013-07-31 22:52:00,
2013-07-31 17:57:00,68.9,68.9,29.00,WNW,294,5.4,6.3,100,0.00,,---,0.24,VWS V14.01,2013-07-31 22:57:00,
2013-07-31 18:02:00,68.9,68.9,28.97,West,279,3.6,5.8,100,0.00,,---,0.24,VWS V14.01,2013-07-31 23:02:00,
2013-07-31 18:07:00,69.1,69.1,28.97,WSW,243,5.4,5.4,100,0.00,,---,0.24,VWS V14.01,2013-07-31 23:07:00,
2013-07-31 18:12:00,69.3,69.3,28.97,West,270,3.6,4.0,100,0.00,,---,0.24,VWS V14.01,2013-07-31 23:12:00,
2013-07-31 18:17:00,69.4,69.4,28.97,WNW,300,4.0,4.9,100,0.00,,---,0.24,VWS V14.01,2013-07-31 23:17:00,
2013-07-31 18:22:00,69.8,69.8,28.97,WNW,287,2.2,3.1,100,0.00,,---,0.24,VWS V14.01,2013-07-31 23:22:00,
2013-07-31 18:27:00,69.8,69.8,28.97,WNW,290,4.0,4.9,100,0.00,,---,0.24,VWS V14.01,2013-07-31 23:27:00,
2013-07-31 18:32:00,70.0,70.0,28.97,West,274,3.6,4.9,100,0.00,,---,0.24,VWS V14.01,2013-07-31 23:32:00,
2013-07-31 18:37:00,70.0,70.0,28.97,WSW,256,5.8,5.8,100,0.00,,---,0.24,VWS V14.01,2013-07-31 23:37:00,
2013-07-31 18:42:00,70.0,70.0,28.97,SW,230,3.1,3.1,100,0.00,,---,0.24,VWS V14.01,2013-07-31 23:42:00,
2013-07-31 18:47:00,69.6,69.6,28.97,WNW,289,4.0,4.0,100,0.00,,---,0.24,VWS V14.01,2013-07-31 23:47:00,
2013-07-31 18:52:00,69.1,69.1,28.97,WNW,282,2.7,3.6,100,0.00,,---,0.24,VWS V14.01,2013-07-31 23:52:00,
2013-07-31 18:57:00,68.7,68.7,28.97,West,261,0.0,0.0,100,0.00,,---,0.24,VWS V14.01,2013-07-31 23:57:00,
2013-07-31 19:02:00,68.5,68.5,28.97,WSW,245,0.0,2.7,100,0.00,,---,0.24,VWS V14.01,2013-08-01 00:02:00,
2013-07-31 19:07:00,68.5,68.5,28.97,WSW,257,0.0,0.0,100,0.00,,---,0.24,VWS V14.01,2013-08-01 00:07:00,
2013-07-31 19:12:00,68.4,68.4,28.97,WSW,257,0.0,0.0,100,0.00,,---,0.24,VWS V14.01,2013-08-01 00:12:00,
2013-07-31 19:17:00,68.0,68.0,28.97,WSW,257,0.0,0.0,100,0.00,,---,0.24,VWS V14.01,2013-08-01 00:17:00,
2013-07-31 19:22:00,67.8,67.8,28.97,West,260,0.0,0.0,100,0.00,,---,0.24,VWS V14.01,2013-08-01 00:22:00,
2013-07-31 19:27:00,67.8,67.8,28.97,West,260,0.0,0.0,100,0.00,,---,0.24,VWS V14.01,2013-08-01 00:27:00,
2013-07-31 19:32:00,67.6,67.6,28.97,West,281,0.0,0.0,100,0.00,,---,0.24,VWS V14.01,2013-08-01 00:32:00,
2013-07-31 19:37:00,67.5,67.5,28.97,WNW,297,0.0,0.0,100,0.00,,---,0.24,VWS V14.01,2013-08-01 00:37:00,
2013-07-31 19:42:00,67.3,67.3,28.97,WNW,297,0.0,0.0,100,0.00,,---,0.24,VWS V14.01,2013-08-01 00:42:00,
2013-07-31 19:47:00,67.1,67.1,28.97,WNW,297,0.0,0.0,100,0.00,,---,0.24,VWS V14.01,2013-08-01 00:47:00,
2013-07-31 19:52:00,67.1,67.1,28.97,WNW,297,0.0,0.0,100,0.00,,---,0.24,VWS V14.01,2013-08-01 00:52:00,
2013-07-31 19:57:00,66.9,66.9,28.97,WNW,297,0.0,0.0,100,0.00,,---,0.24,VWS V14.01,2013-08-01 00:57:00,
2013-07-31 20:02:00,66.9,66.9,28.97,WNW,297,0.0,0.0,100,0.00,,---,0.24,VWS V14.01,2013-08-01 01:02:00,
2013-07-31 20:07:00,66.9,66.9,28.97,WNW,297,0.0,0.0,100,0.00,,---,0.24,VWS V14.01,2013-08-01 01:07:00,
2013-07-31 20:12:00,66.9,66.9,28.97,WNW,297,0.0,0.0,100,0.00,,---,0.24,VWS V14.01,2013-08-01 01:12:00,
2013-07-31 20:17:00,66.7,66.7,28.97,West,276,0.0,0.0,100,0.00,,---,0.24,VWS V14.01,2013-08-01 01:17:00,
2013-07-31 20:22:00,66.7,66.7,28.97,WNW,298,2.2,2.2,100,0.00,,---,0.24,VWS V14.01,2013-08-01 01:22:00,
2013-07-31 20:27:00,66.6,66.6,28.97,WNW,298,0.0,0.0,100,0.00,,---,0.24,VWS V14.01,2013-08-01 01:27:00,
2013-07-31 20:32:00,66.4,66.4,28.97,WNW,290,0.0,0.0,100,0.00,,---,0.24,VWS V14.01,2013-08-01 01:32:00,
2013-07-31 20:37:00,66.0,66.0,28.97,WNW,290,3.1,3.1,100,0.00,,---,0.24,VWS V14.01,2013-08-01 01:37:00,
2013-07-31 20:42:00,65.8,65.8,28.97,WNW,284,2.7,3.1,100,0.00,,---,0.24,VWS V14.01,2013-08-01 01:42:00,
2013-07-31 20:47:00,65.7,65.7,28.97,West,279,3.1,3.6,100,0.00,,---,0.24,VWS V14.01,2013-08-01 01:47:00,
2013-07-31 20:52:00,65.5,65.5,28.97,WNW,289,2.7,2.7,100,0.00,,---,0.24,VWS V14.01,2013-08-01 01:52:00,
2013-07-31 20:57:00,65.1,65.1,28.97,West,275,2.2,3.1,100,0.00,,---,0.24,VWS V14.01,2013-08-01 01:57:00,
2013-07-31 21:02:00,65.3,65.3,28.97,West,280,0.0,2.2,100,0.00,,---,0.24,VWS V14.01,2013-08-01 02:02:00,
2013-07-31 21:07:00,65.5,65.5,28.97,West,267,0.0,0.0,100,0.00,,---,0.24,VWS V14.01,2013-08-01 02:07:00,
2013-07-31 21:12:00,65.3,65.3,28.97,West,267,0.0,0.0,100,0.00,,---,0.24,VWS V14.01,2013-08-01 02:12:00,
2013-07-31 21:17:00,65.3,65.3,29.00,West,267,0.0,0.0,100,0.00,,---,0.24,VWS V14.01,2013-08-01 02:17:00,
2013-07-31 21:22:00,65.1,65.1,29.00,West,274,0.0,0.0,100,0.00,,---,0.24,VWS V14.01,2013-08-01 02:22:00,
2013-07-31 21:27:00,65.1,65.1,29.00,West,273,0.0,0.0,100,0.00,,---,0.24,VWS V14.01,2013-08-01 02:27:00,
2013-07-31 21:32:00,64.9,64.9,29.00,West,268,2.7,2.7,100,0.00,,---,0.24,VWS V14.01,2013-08-01 02:32:00,
2013-07-31 21:37:00,64.8,64.8,29.00,West,268,0.0,0.0,100,0.00,,---,0.24,VWS V14.01,2013-08-01 02:37:00,
2013-07-31 21:42:00,64.6,64.6,29.00,West,268,0.0,0.0,100,0.00,,---,0.24,VWS V14.01,2013-08-01 02:42:00,
2013-07-31 21:47:00,64.6,64.6,29.00,West,268,0.0,0.0,100,0.00,,---,0.24,VWS V14.01,2013-08-01 02:47:00,
2013-07-31 21:52:00,64.4,64.4,29.00,West,268,0.0,0.0,100,0.00,,---,0.24,VWS V14.01,2013-08-01 02:52:00,
2013-07-31 21:57:00,64.2,64.2,29.00,West,268,0.0,0.0,100,0.00,,---,0.24,VWS V14.01,2013-08-01 02:57:00,
2013-07-31 22:02:00,64.2,64.2,29.00,West,268,0.0,0.0,100,0.00,,---,0.24,VWS V14.01,2013-08-01 03:02:00,
2013-07-31 22:07:00,64.0,64.0,29.00,West,268,0.0,0.0,100,0.00,,---,0.24,VWS V14.01,2013-08-01 03:07:00,
2013-07-31 22:12:00,63.9,63.9,29.00,West,267,0.0,0.0,100,0.00,,---,0.24,VWS V14.01,2013-08-01 03:12:00,
2013-07-31 22:17:00,64.0,64.0,29.00,West,267,0.0,0.0,100,0.00,,---,0.24,VWS V14.01,2013-08-01 03:17:00,
2013-07-31 22:22:00,64.0,64.0,29.00,West,265,0.0,0.0,100,0.00,,---,0.24,VWS V14.01,2013-08-01 03:22:00,
2013-07-31 22:27:00,63.7,63.7,29.00,West,265,0.0,0.0,100,0.00,,---,0.24,VWS V14.01,2013-08-01 03:27:00,
2013-07-31 22:32:00,63.5,63.5,29.00,West,265,0.0,0.0,100,0.00,,---,0.24,VWS V14.01,2013-08-01 03:32:00,
2013-07-31 22:37:00,63.1,63.1,29.00,West,265,0.0,0.0,100,0.00,,---,0.24,VWS V14.01,2013-08-01 03:37:00,
2013-07-31 22:42:00,63.0,63.0,29.00,West,265,0.0,0.0,100,0.00,,---,0.24,VWS V14.01,2013-08-01 03:42:00,
2013-07-31 22:47:00,63.0,63.0,29.00,West,266,3.1,3.1,100,0.00,,---,0.24,VWS V14.01,2013-08-01 03:47:00,
2013-07-31 22:52:00,63.0,63.0,29.00,West,264,0.0,0.0,100,0.00,,---,0.24,VWS V14.01,2013-08-01 03:52:00,
2013-07-31 22:57:00,62.6,62.6,29.00,West,264,0.0,2.7,100,0.00,,---,0.24,VWS V14.01,2013-08-01 03:57:00,
2013-07-31 23:01:00,62.6,62.6,29.00,West,264,0.0,0.0,100,0.00,,---,0.24,VWS V14.01,2013-08-01 04:01:00,
2013-07-31 23:02:00,62.6,62.6,29.00,West,264,0.0,0.0,100,0.00,,---,0.24,VWS V14.01,2013-08-01 04:02:00,
2013-07-31 23:07:00,62.4,62.4,29.00,West,264,0.0,0.0,100,0.00,,---,0.24,VWS V14.01,2013-08-01 04:07:00,
2013-07-31 23:12:00,62.2,62.2,29.00,West,267,0.0,0.0,100,0.00,,---,0.24,VWS V14.01,2013-08-01 04:12:00,
2013-07-31 23:17:00,62.4,62.4,29.00,West,261,0.0,0.0,100,0.00,,---,0.24,VWS V14.01,2013-08-01 04:17:00,
2013-07-31 23:22:00,62.2,62.2,29.00,WSW,240,2.7,3.6,100,0.00,,---,0.24,VWS V14.01,2013-08-01 04:22:00,
2013-07-31 23:27:00,62.2,62.2,29.00,WSW,250,3.1,3.6,100,0.00,,---,0.24,VWS V14.01,2013-08-01 04:27:00,
2013-07-31 23:32:00,62.2,62.2,29.00,WSW,250,3.6,3.6,100,0.00,,---,0.24,VWS V14.01,2013-08-01 04:32:00,
2013-07-31 23:37:00,62.2,62.2,29.00,West,260,3.1,3.6,100,0.00,,---,0.24,VWS V14.01,2013-08-01 04:37:00,
2013-07-31 23:42:00,62.1,62.1,29.00,West,260,3.6,4.0,100,0.00,,---,0.24,VWS V14.01,2013-08-01 04:42:00,
2013-07-31 23:47:00,61.9,61.9,29.00,WSW,247,3.1,3.1,100,0.00,,---,0.24,VWS V14.01,2013-08-01 04:47:00,
2013-07-31 23:52:00,61.7,61.7,29.00,West,261,0.0,2.2,100,0.00,,---,0.24,VWS V14.01,2013-08-01 04:52:00,
2013-07-31 23:57:00,61.5,61.5,29.00,WSW,245,3.1,3.1,100,0.00,,---,0.24,VWS V14.01,2013-08-01 04:57:00,